EW6281 Weather Reports


Display with metric or nautical units.
time (UTC)temp
F
wind
direction
speed
MPH
gust
MPH
rain 1hr
in
rain 24hr
in
rain mn
in
humidity
%
barometer
mb
20260506061601 43 16 1.0 10.0 0.00 0.00 0.00 84 1013.1
20260506050110 41 352 2.0 9.0 0.00 0.00 0.00 85 1012.9
20260506044601 42 36 4.0 11.0 0.00 0.00 0.00 85 1012.7
20260506043053 42 346 2.0 11.0 0.00 0.00 0.00 84 1012.8
20260506041556 42 19 2.0 10.0 0.00 0.00 0.00 84 1012.8
20260506040100 43 43 2.0 11.0 0.00 0.00 0.00 84 1012.7
20260506034553 43 45 4.0 13.0 0.00 0.00 0.00 83 1012.7
20260506033055 43 20 2.0 11.0 0.00 0.00 0.00 83 1012.8
20260506031600 43 10 3.0 9.0 0.00 0.00 0.00 83 1012.6
20260506030110 44 45 2.0 9.0 0.00 0.00 0.00 83 1012.7
20260506024556 44 23 3.0 10.0 0.00 0.00 0.00 83 1012.8
20260506023056 44 18 2.0 10.0 0.00 0.00 0.00 83 1012.9
20260506021603 44 49 2.0 11.0 0.00 0.00 0.00 82 1012.9
20260506020057 44 5 3.0 10.0 0.00 0.00 0.00 82 1013.0
20260506014559 44 26 3.0 9.0 0.00 0.00 0.00 82 1013.1
20260506013054 45 11 3.0 9.0 0.00 0.00 0.00 82 1013.1
20260506011558 45 17 2.0 13.0 0.00 0.00 0.00 82 1013.2
20260506010059 45 347 2.0 14.0 0.00 0.00 0.00 82 1013.1
20260506004627 46 0 4.0 11.0 0.00 0.00 0.00 82 1013.2
20260506003057 46 30 1.0 10.0 0.00 0.00 0.00 82 1013.3
20260506001600 46 15 2.0 10.0 0.00 0.00 0.00 81 1013.5
20260506000100 47 53 2.0 8.0 0.00 0.00 0.00 80 1013.3
20260505234617 47 40 2.0 11.0 0.00 0.00 0.00 81 1013.5
20260505233058 47 22 1.0 12.0 0.00 0.00 0.00 83 1013.5
20260505231554 47 33 2.0 10.0 0.00 0.00 0.00 83 1013.7
20260505230100 47 125 2.0 9.0 0.00 0.00 0.00 83 1013.7
20260505224557 47 49 1.0 11.0 0.00 0.00 0.00 82 1013.5
20260505223103 48 0 1.0 10.0 0.00 0.00 0.00 82 1013.6
20260505221606 48 86 1.0 10.0 0.00 0.00 0.00 81 1013.6
20260505220138 48 11 3.0 9.0 0.00 0.00 0.00 81 1013.7
20260505214615 48 22 1.0 6.0 0.00 0.00 0.00 80 1013.7
20260505213054 48 15 1.0 5.0 0.00 0.00 0.00 79 1013.6
20260505211611 48 25 3.0 8.0 0.00 0.00 0.00 79 1013.6
20260505210055 49 34 2.0 7.0 0.00 0.00 0.00 79 1013.5
20260505204558 49 26 3.0 12.0 0.00 0.00 0.00 79 1013.5
20260505203054 49 40 3.0 14.0 0.00 0.00 0.00 78 1013.4
20260505201607 50 25 3.0 11.0 0.00 0.00 0.00 77 1013.3
20260505194602 51 30 2.0 10.0 0.00 0.00 0.00 74 1012.7
20260505193056 52 19 1.0 10.0 0.00 0.00 0.00 73 1012.5
20260505191555 52 35 1.0 10.0 0.00 0.00 0.00 72 1012.3
20260505190100 53 21 1.0 12.0 0.00 0.00 0.00 71 1012.1
20260505184557 53 33 4.0 13.0 0.00 0.00 0.00 71 1012.0
20260505183055 53 34 3.0 14.0 0.00 0.00 0.00 71 1011.9
20260505181554 53 25 3.0 9.0 0.00 0.00 0.00 72 1011.7
20260505174558 54 58 3.0 10.0 0.00 0.00 0.00 72 1011.8
20260505173056 55 28 3.0 11.0 0.00 0.00 0.00 73 1011.8
20260505171600 55 28 2.0 9.0 0.00 0.00 0.00 72 1011.7
20260505170100 56 9 2.0 8.0 0.00 0.00 0.00 71 1011.9
20260505164630 56 0 0.0 5.0 0.00 0.00 0.00 68 1011.9
20260505163053 56 23 1.0 8.0 0.00 0.00 0.00 67 1011.8
20260505161559 57 0 1.0 4.0 0.00 0.00 0.00 67 1011.9
20260505160108 57 0 1.0 8.0 0.00 0.00 0.00 67 1011.9
20260505153057 57 0 0.0 8.0 0.00 0.00 0.00 66 1012.0
20260505151611 58 20 1.0 10.0 0.00 0.00 0.00 65 1012.1
20260505140124 59 0 1.0 5.0 0.00 0.00 0.00 64 1012.2
20260505124604 59 93 0.0 3.0 0.00 0.00 0.00 64 1012.4
20260505123057 59 0 3.0 9.0 0.00 0.00 0.00 63 1012.5
20260505121600 58 0 1.0 10.0 0.00 0.00 0.00 65 1012.6
20260505120113 58 309 1.0 5.0 0.00 0.00 0.00 65 1012.5
20260505114557 57 26 2.0 9.0 0.00 0.00 0.00 68 1012.7
20260505113057 57 0 1.0 6.0 0.00 0.00 0.00 69 1012.8
20260505111554 57 13 2.0 8.0 0.00 0.00 0.00 71 1012.9
20260505110106 56 329 1.0 5.0 0.00 0.00 0.00 73 1013.1
20260505101556 55 27 2.0 7.0 0.00 0.00 0.00 76 1013.2
20260505100053 55 5 1.0 8.0 0.00 0.00 0.00 78 1013.2
20260505094553 55 53 2.0 9.0 0.00 0.00 0.00 76 1013.3
20260505093051 55 0 0.0 4.0 0.00 0.00 0.00 76 1013.4
20260505091605 54 16 1.0 7.0 0.00 0.00 0.00 78 1013.5
20260505090055 54 24 1.0 7.0 0.00 0.00 0.00 80 1013.3
20260505084555 53 5 1.0 4.0 0.00 0.00 0.00 82 1013.5
20260505083053 52 14 1.0 8.0 0.00 0.00 0.00 83 1013.5
20260505081555 52 86 0.0 5.0 0.00 0.00 0.00 84 1013.5
20260505080104 51 10 2.0 5.0 0.00 0.00 0.00 87 1013.6
20260505074552 50 0 0.0 8.0 0.00 0.00 0.00 89 1013.5
20260505073055 50 5 0.0 9.0 0.00 0.00 0.00 90 1013.6
20260505071555 50 0 0.0 4.0 0.00 0.00 0.00 91 1013.5
20260505070057 49 0 0.0 3.0 0.00 0.00 0.00 91 1013.4
20260505064554 48 0 1.0 5.0 0.00 0.00 0.00 91 1013.4
20260505063112 48 0 0.0 3.0 0.00 0.00 0.00 91 1013.6